Погода в Задаре

Хорватия     44°06′51″N   15°15′19″E
темп.,
°C
ветер,
м/с
пор.,
м/с
влажн.,
%
обл.,
%
осадки,
мм/ч
давл.,
гПа
погр.,
м
19 апреля, пн
пн1923:00+9св456942 0.0 1016212
02:00+8св336896 0.0 1015138
05:00+8ссв346776 0.0 1015160
08:00+8ссв336681 0.0 1014205
11:00+11ссз345699 0.0 1014679
14:00+13ссз6457100 0.0 1014874
17:00+13ссз7557100 0.0 1013878
20:00+11с556373 0.0 1013501
20 апреля, вт
вт2023:00+9ссв23656 0.0 1015202
02:00+9ссв226498 0.0 1014176
05:00+9ссв226518 0.0 1015179
08:00+9св236567 0.0 1015171
11:00+11зсз236289 0.0 1016435
14:00+12зсз44646 0.0 1016539
17:00+13сз55665 0.0 1015501
20:00+12ссз34707 0.0 1016234
21 апреля, ср
ср2123:00+12з237095 0.0 1018291
02:00+11зюз01711 0.0 1018268
05:00+10вюв33762 0.0 1018208
08:00+11вюв55775 0.0 1019354
11:00+13ююв56735 0.0 1020653
14:00+14ю65683 0.1 1020638
17:00+14ююв556796 0.0 1019544
20:00+13юв5675100 0.0 1019358
22 апреля, чт
чт2223:00+13юв6880100 0.0 1020466
02:00+12вюв6978100 0.1 1019430
05:00+11вюв6978100 0.1 1018357
08:00+12вюв91281100 0.7 1019415
11:00+14юв10127879 0.6 1019805
14:00+14ююв10117985 1.9 1018704
17:00+14ююв798099 0.6 1017654
20:00+14юв8108473 1.1 1017445
23 апреля, пт
пт2323:00+13вюв5883100 0.6 1018342
02:00+12в577798 0.6 1016240
05:00+12св3373100 0.0 101699
08:00+12св6872100 0.1 1017360
11:00+12св5766100 0.0 1018322
14:00+14всв345631 0.0 1017475
17:00+15сз325714 0.0 1017458
20:00+14св11691 0.0 101825